This is the latest recevied weather packets stored in our database for station/object WC4PEM. If no packets are shown the sender has not sent any weather packets the latest 1 day(s).
| Time | Temp. | Humidity | Pressure | Rain* | Wind** | Luminosity | Snow |
|---|---|---|---|---|---|---|---|
| 1778022509 | 28.89° C | 54% | 1013.5 hPa | 0 mm | 4.47 m/s, 69° | - | - |
| 1778022267 | 28.89° C | 54% | 1013.5 hPa | 0 mm | 4.47 m/s, 69° | - | - |
| 1778022144 | 28.89° C | 53% | 1013.5 hPa | 0 mm | 4.02 m/s, 88° | - | - |
| 1778022009 | 28.89° C | 52% | 1013.5 hPa | 0 mm | 4.02 m/s, 97° | - | - |
| 1778021967 | 28.89° C | 53% | 1013.5 hPa | 0 mm | 4.02 m/s, 88° | - | - |
| 1778021667 | 28.89° C | 52% | 1013.5 hPa | 0 mm | 4.02 m/s, 97° | - | - |
| 1778021497 | 29.44° C | 52% | 1013.5 hPa | 0 mm | 4.47 m/s, 115° | - | - |
| 1778021367 | 29.44° C | 52% | 1013.5 hPa | 0 mm | 4.47 m/s, 115° | - | - |
| 1778021273 | 29.44° C | 52% | 1013.5 hPa | 0 mm | 4.92 m/s, 77° | - | - |
| 1778021067 | 29.44° C | 52% | 1013.5 hPa | 0 mm | 4.92 m/s, 77° | - | - |
| 1778020767 | 29.44° C | 52% | 1013.5 hPa | 0 mm | 4.47 m/s, 92° | - | - |
| 1778020590 | 29.44° C | 50% | 1013.5 hPa | 0 mm | 4.02 m/s, 78° | - | - |
| 1778020467 | 29.44° C | 50% | 1013.5 hPa | 0 mm | 4.02 m/s, 78° | - | - |
| 1778020292 | 30° C | 51% | 1013.4 hPa | 0 mm | 4.02 m/s, 100° | - | - |
| 1778020167 | 30° C | 51% | 1013.4 hPa | 0 mm | 4.02 m/s, 100° | - | - |
| 1778019867 | 30° C | 50% | 1013.3 hPa | 0 mm | 4.02 m/s, 128° | - | - |
| 1778019567 | 30° C | 50% | 1013.4 hPa | 0 mm | 4.02 m/s, 82° | - | - |
| 1778019267 | 30° C | 50% | 1013.4 hPa | 0 mm | 4.02 m/s, 117° | - | - |
| 1778019093 | 30° C | 49% | 1013.3 hPa | 0 mm | 3.13 m/s, 87° | - | - |
| 1778018967 | 30° C | 49% | 1013.3 hPa | 0 mm | 3.13 m/s, 87° | - | - |
| 1778018763 | 30° C | 49% | 1013.3 hPa | 0 mm | 3.13 m/s, 76° | - | - |
| 1778018667 | 30° C | 49% | 1013.3 hPa | 0 mm | 3.13 m/s, 76° | - | - |
| 1778018367 | 30° C | 49% | 1013.4 hPa | 0 mm | 3.58 m/s, 50° | - | - |
| 1778018067 | 30.56° C | 49% | 1013.4 hPa | 0 mm | 2.68 m/s, 77° | - | - |
| 1778017823 | 30.56° C | 49% | 1013.3 hPa | 0 mm | 3.58 m/s, 61° | - | - |
* Rain latest hour (hover to see other rain measurements)
** Current wind speed in m/s (hover to see current wind gust speed)